This demonstration page uses our WeatherBlox Daily Observations layout. Learn more.

Left ArrowRight Arrow

41.86663, -103.66717

Hourly Observations for April 8, 2018

Temp ( °F °C ) Dew Point ( °F °C ) Humidity (%) Winds ( mph kmh ) Pressure ( in mb ) Visibility ( mi km ) Precip ( " mm )
12:53 am 00:53 Clear 40 4.4 34 1.1 79 79 E 12 19 29.52 1000 10 16 N/A
1:53 am 01:53 Clear 39 3.9 34 1.1 82 82 E 12 19 29.49 999 10 16 N/A
2:53 am 02:53 Clear 39 3.9 34 1.1 82 82 E 9 15 29.47 998 10 16 N/A
3:53 am 03:53 Cloudy 39 3.9 35 1.7 86 86 ENE 5 7 29.48 998 10 16 N/A
4:53 am 04:53 Clear 45 7.2 35 1.7 68 68 NNW 18 30 29.50 999 10 16 N/A
5:53 am 05:53 Clear 42 5.6 34 1.1 73 73 WNW 18 30 29.56 1001 10 16 N/A
6:53 am 06:53 Sunny 42 5.6 34 1.1 73 73 WNW 14 22 29.61 1003 10 16 N/A
7:53 am 07:53 Sunny 44 6.7 33 0.6 65 65 NW 16 26 29.64 1004 10 16 N/A
8:53 am 08:53 Sunny 49 9.4 26 -3.3 41 41 NW 29 46 29.64 1004 10 16 N/A
9:53 am 09:53 Sunny 53 11.7 26 -3.3 35 35 NNW 31 50 29.65 1004 10 16 N/A
10:53 am 10:53 Sunny 55 12.8 26 -3.3 33 33 NNW 23 37 29.66 1004 10 16 N/A
11:53 am 11:53 Sunny 57 13.9 27 -2.8 32 32 NNW 23 37 29.66 1004 10 16 N/A
12:53 pm 12:53 Sunny 59 15 28 -2.2 31 31 NNW 21 33 29.65 1004 10 16 N/A
1:53 pm 13:53 Sunny 61 16.1 27 -2.8 27 27 NNW 23 37 29.64 1004 10 16 N/A
2:53 pm 14:53 Cloudy 59 15 26 -3.3 28 28 NW 18 30 29.64 1004 10 16 N/A
3:53 pm 15:53 Cloudy 57 13.9 28 -2.2 33 33 W 13 20 29.66 1005 10 16 N/A
4:53 pm 16:53 Cloudy with Light Rain 54 12.2 37 2.8 53 53 NNE 9 15 29.67 1005 10 16 0.01 0.25
5:53 pm 17:53 Cloudy 52 11.1 35 1.7 53 53 N 14 22 29.73 1007 10 16 N/A
6:12 pm 18:12 Cloudy with Light Rain 50 10 36 2 58 58 WNW 12 19 29.74 1007 10 16 N/A
6:53 pm 18:53 Cloudy 49 9.4 36 2.2 61 61 N 14 22 29.79 1009 10 16 N/A
7:53 pm 19:53 Cloudy 44 6.7 40 4.4 85 85 NNW 8 13 29.84 1011 10 16 0.01 0.25
8:53 pm 20:53 Cloudy 43 6.1 40 4.4 89 89 NNW 7 11 29.88 1012 10 16 0.01 0.25
9:53 pm 21:53 Cloudy 40 4.4 38 3.3 93 93 ESE 7 11 29.88 1012 10 16 N/A
10:53 pm 22:53 Mostly Cloudy 39 3.9 38 3.3 96 96 SW 6 9 29.92 1013 10 16 N/A
11:53 pm 23:53 Mostly Cloudy 39 3.9 37 2.8 93 93 W 3 6 29.92 1013 10 16 N/A

Powered by AerisWeather